Weather Service Report


012 
ASUS45 KSLC 300310
RWRUT 

UTAH REGIONAL WEATHER ROUNDUP
NATIONAL WEATHER SERVICE SALT LAKE CITY UT
900 PM MDT TUE JUL 29 2014

UTZ001>011-023>025-300400-

NORTHERN UTAH
  
CITY           SKY/WX    TMP DP  RH WIND       PRES   REMARKS
HILL AFB       CLOUDY    67  59  77 SE3       30.18R                  
LOGAN          CLOUDY    70  61  73 NW3       30.16R                  
OGDEN          LGT RAIN  72  59  63 CALM      30.15R                  
PROVO AIRPORT  MOCLDY    66  55  68 CALM      30.18R                  
SALT LAKE CITY MOCLDY    71  62  73 N6        30.13R                  
VERNAL         CLOUDY    65  58  78 CALM      30.22R                  
WENDOVER       CLOUDY    73  57  56 E3        30.16R                  
HEBER CITY     CLOUDY    64  54  68 SE5       30.21R                  
WEST JORDAN    CLEAR     72  64  78 S7        30.17R                  

$$

UTZ012>022-026-027-300400-

SOUTHERN UTAH
  
CITY           SKY/WX    TMP DP  RH WIND       PRES   REMARKS
BRYCE CANYON   PTCLDY    58  55  90 NW7       30.35F                  
CEDAR CITY     MOCLDY    67  62  84 CALM      30.19F                  
MILFORD        CLEAR     70  59  68 SW12      30.15S                  
MOAB/CYNLANDS  MOCLDY    68  63  84 S3        30.14S                  
PRICE          MOCLDY    68  52  56 CALM      30.22S                  
ST GEORGE      CLOUDY    91  54  27 W7        29.98R                  
KANAB            N/A     79  52  38 W5        30.15S                  

$$

REGIONAL REPORTS     COLORADO/ARIZONA
  
CITY           SKY/WX    TMP DP  RH WIND       PRES   REMARKS
CRAIG, CO      LGT RAIN  54  32  43 SW12      30.29R                  
GRAND JUNCTION CLOUDY    64  57  78 NE5       30.22R                  
RIFLE          LGT RAIN  64  54  69 W23G30    30.27R                  
MONTROSE       LGT RAIN  68  58  70 N3        30.27R                  
CORTEZ         CLEAR     68  52  56 CALM      30.22R                  
PAGE, AZ       PTCLDY    88  51  28 NW8       30.06R                  
GRAND CANYON   PTCLDY    74  49  41 W5        30.28R                  
KINGMAN        CLEAR     90  48  23 SW12      30.02S                  
FLAGSTAFF      PTCLDY    71  49  45 W5        30.32R                  

$$

REGIONAL REPORTS    NEVADA/IDAHO/WYOMING
  
CITY           SKY/WX    TMP DP  RH WIND       PRES   REMARKS
LAS VEGAS, NV  PTCLDY    96  52  22 S6        29.88R HX  93           
ELY            RAIN      57  57 100 N16       30.36R                  
ELKO           CLOUDY    69  52  54 E6        30.26                   
POCATELLO, ID  CLOUDY    72  58  61 N7        30.20R                  
BURLEY         MOCLDY    69  54  58 N12G21    30.19R                  
EVANSTON, WY   CLOUDY    59  54  83 E10       30.31R                  
ROCK SPRINGS   CLOUDY    57  53  86 E17       30.33S                  

$$

Return to Home page


Western Regional Climate Center, wrcc@dri.edu